N410HA KPDX-KDLS

Flight info

Callsign N410HA
Flight time 0h 37m
Altitude 3500
Route VFR
Aircraft PA28/L-VGD/C

Departure

Time 2026-05-08 01:45
Airport Portland International Airport (KPDX)

Arrival

Time 2026-05-08 02:23
Airport Columbia Gorge Regional Airport (KDLS)
Time Latitude Longitude Altitude Speed Heading
2026-05-08 01:30 45.58507 -122.57775 31 ft 0 kts 211°
2026-05-08 01:41 45.58505 -122.57779 31 ft 2 kts 251°
2026-05-08 01:41 45.58508 -122.57795 31 ft 0 kts 308°
2026-05-08 01:42 45.58510 -122.57797 31 ft 2 kts 333°
2026-05-08 01:42 45.58531 -122.57772 31 ft 6 kts 67°
2026-05-08 01:43 45.58543 -122.57731 31 ft 0 kts 60°
2026-05-08 01:43 45.58544 -122.57730 31 ft 1 kts 60°
2026-05-08 01:43 45.58563 -122.57692 31 ft 8 kts 39°
2026-05-08 01:43 45.58618 -122.57642 31 ft 7 kts 30°
2026-05-08 01:44 45.58628 -122.57635 31 ft 1 kts 24°
2026-05-08 01:44 45.58659 -122.57611 32 ft 9 kts 28°
2026-05-08 01:44 45.58723 -122.57636 32 ft 10 kts 302°
2026-05-08 01:44 45.58826 -122.57894 32 ft 53 kts 299°
2026-05-08 01:45 45.59056 -122.58502 100 ft 79 kts 294°
2026-05-08 01:45 45.59340 -122.59225 240 ft 87 kts 297°
2026-05-08 01:45 45.59626 -122.60004 444 ft 86 kts 297°
2026-05-08 01:45 45.59891 -122.60751 661 ft 84 kts 294°
2026-05-08 01:46 45.60173 -122.61556 786 ft 91 kts 296°
2026-05-08 01:46 45.60408 -122.62337 1007 ft 88 kts 291°
2026-05-08 01:46 45.60605 -122.63170 1153 ft 93 kts 289°
2026-05-08 01:46 45.60842 -122.64059 1313 ft 93 kts 294°
2026-05-08 01:47 45.61111 -122.64796 1591 ft 81 kts 302°
2026-05-08 01:47 45.61391 -122.65551 1716 ft 89 kts 298°
2026-05-08 01:47 45.61663 -122.66396 1776 ft 101 kts 300°
2026-05-08 01:48 45.62913 -122.66924 2083 ft 94 kts
2026-05-08 01:48 45.63561 -122.66785 2225 ft 96 kts 16°
2026-05-08 01:48 45.63997 -122.66106 2395 ft 98 kts 66°
2026-05-08 01:48 45.63960 -122.65099 2480 ft 107 kts 105°
2026-05-08 01:49 45.63691 -122.64108 2660 ft 102 kts 111°
2026-05-08 01:49 45.63419 -122.63191 2829 ft 100 kts 114°
2026-05-08 01:49 45.63103 -122.62338 3050 ft 93 kts 112°
2026-05-08 01:49 45.62860 -122.61471 3190 ft 95 kts 110°
2026-05-08 01:50 45.62592 -122.60590 3338 ft 96 kts 110°
2026-05-08 01:50 45.62315 -122.59683 3441 ft 101 kts 107°
2026-05-08 01:50 45.62149 -122.58672 3478 ft 111 kts 97°
2026-05-08 01:50 45.62001 -122.57538 3472 ft 120 kts 97°
2026-05-08 01:51 45.61848 -122.56331 3468 ft 123 kts 97°
2026-05-08 01:51 45.61693 -122.55117 3467 ft 126 kts 97°
2026-05-08 01:51 45.61534 -122.53855 3467 ft 127 kts 97°
2026-05-08 01:51 45.61376 -122.52601 3466 ft 128 kts 97°
2026-05-08 01:52 45.61216 -122.51335 3466 ft 129 kts 97°
2026-05-08 01:52 45.61059 -122.50087 3466 ft 129 kts 97°
2026-05-08 01:52 45.60900 -122.48811 3467 ft 129 kts 97°
2026-05-08 01:52 45.60740 -122.47543 3468 ft 129 kts 97°
2026-05-08 01:53 45.60579 -122.46264 3470 ft 129 kts 97°
2026-05-08 01:53 45.60422 -122.45001 3471 ft 129 kts 97°
2026-05-08 01:53 45.60264 -122.43741 3472 ft 129 kts 97°
2026-05-08 01:53 45.60104 -122.42459 3474 ft 129 kts 97°
2026-05-08 01:54 45.59943 -122.41187 3474 ft 130 kts 97°
2026-05-08 01:54 45.59784 -122.39911 3475 ft 129 kts 97°
2026-05-08 01:54 45.59626 -122.38649 3475 ft 129 kts 98°
2026-05-08 01:54 45.59309 -122.37441 3473 ft 130 kts 112°
2026-05-08 01:55 45.58934 -122.36268 3477 ft 130 kts 112°
2026-05-08 01:55 45.58554 -122.35078 3477 ft 130 kts 112°
2026-05-08 01:55 45.58176 -122.33897 3478 ft 130 kts 112°
2026-05-08 01:55 45.57814 -122.32760 3478 ft 130 kts 112°
2026-05-08 01:56 45.57436 -122.31577 3478 ft 130 kts 112°
2026-05-08 01:56 45.57061 -122.30397 3479 ft 129 kts 112°
2026-05-08 01:56 45.56702 -122.29266 3479 ft 129 kts 112°
2026-05-08 01:56 45.56416 -122.28046 3483 ft 129 kts 101°
2026-05-08 01:57 45.56250 -122.26766 3481 ft 130 kts 98°
2026-05-08 01:57 45.56119 -122.25497 3485 ft 129 kts 87°
2026-05-08 01:57 45.56237 -122.24233 3484 ft 128 kts 77°
2026-05-08 01:57 45.56381 -122.22966 3482 ft 129 kts 78°
2026-05-08 01:58 45.56526 -122.21716 3480 ft 129 kts 77°
2026-05-08 01:58 45.56673 -122.20446 3481 ft 128 kts 77°
2026-05-08 01:58 45.56847 -122.19221 3484 ft 126 kts 71°
2026-05-08 01:58 45.57088 -122.18002 3482 ft 126 kts 70°
2026-05-08 01:59 45.57329 -122.16803 3481 ft 126 kts 71°
2026-05-08 01:59 45.57571 -122.15611 3480 ft 125 kts 71°
2026-05-08 01:59 45.57818 -122.14410 3480 ft 125 kts 71°
2026-05-08 01:59 45.58062 -122.13210 3480 ft 125 kts 70°
2026-05-08 02:00 45.58307 -122.12012 3480 ft 125 kts 70°
2026-05-08 02:00 45.58551 -122.10807 3480 ft 125 kts 71°
2026-05-08 02:00 45.58822 -122.09618 3485 ft 125 kts 63°
2026-05-08 02:00 45.59187 -122.08485 3481 ft 125 kts 62°
2026-05-08 02:01 45.59563 -122.07340 3478 ft 125 kts 62°
2026-05-08 02:01 45.59596 -122.07239 3478 ft 125 kts 62°
2026-05-08 02:01 45.59966 -122.06114 3476 ft 125 kts 61°
2026-05-08 02:01 45.60336 -122.04986 3475 ft 125 kts 61°
2026-05-08 02:02 45.60700 -122.03870 3474 ft 125 kts 62°
2026-05-08 02:02 45.61070 -122.02735 3475 ft 125 kts 61°
2026-05-08 02:02 45.61442 -122.01605 3472 ft 125 kts 61°
2026-05-08 02:02 45.61807 -122.00484 3470 ft 125 kts 61°
2026-05-08 02:03 45.62172 -121.99353 3470 ft 125 kts 62°
2026-05-08 02:03 45.62546 -121.98222 3468 ft 125 kts 60°
2026-05-08 02:03 45.63006 -121.97163 3468 ft 125 kts 52°
2026-05-08 02:03 45.63482 -121.96137 3469 ft 125 kts 53°
2026-05-08 02:04 45.63969 -121.95094 3471 ft 124 kts 53°
2026-05-08 02:04 45.64452 -121.94057 3469 ft 124 kts 52°
2026-05-08 02:04 45.64934 -121.93027 3467 ft 124 kts 52°
2026-05-08 02:04 45.65417 -121.91996 3463 ft 125 kts 52°
2026-05-08 02:05 45.65902 -121.90948 3463 ft 125 kts 53°
2026-05-08 02:05 45.66385 -121.89909 3466 ft 125 kts 53°
2026-05-08 02:05 45.66867 -121.88880 3465 ft 125 kts 51°
2026-05-08 02:05 45.67385 -121.87883 3468 ft 125 kts 49°
2026-05-08 02:06 45.67917 -121.86891 3467 ft 125 kts 49°
2026-05-08 02:06 45.68449 -121.85901 3467 ft 125 kts 48°
2026-05-08 02:06 45.68984 -121.84908 3465 ft 125 kts 48°
2026-05-08 02:06 45.69517 -121.83923 3467 ft 125 kts 48°
2026-05-08 02:07 45.70051 -121.82941 3464 ft 125 kts 48°
2026-05-08 02:07 45.70583 -121.81950 3466 ft 125 kts 49°
2026-05-08 02:07 45.71018 -121.80877 3455 ft 128 kts 73°
2026-05-08 02:07 45.70913 -121.79618 3453 ft 128 kts 113°
2026-05-08 02:08 45.70586 -121.78442 3464 ft 128 kts 104°
2026-05-08 02:08 45.70355 -121.77209 3463 ft 128 kts 103°
2026-05-08 02:08 45.70120 -121.75979 3463 ft 128 kts 103°
2026-05-08 02:08 45.69886 -121.74743 3460 ft 128 kts 103°
2026-05-08 02:09 45.69794 -121.73479 3466 ft 127 kts 83°
2026-05-08 02:09 45.69854 -121.72203 3459 ft 128 kts 85°
2026-05-08 02:09 45.69907 -121.70932 3457 ft 129 kts 84°
2026-05-08 02:09 45.69975 -121.69631 3457 ft 129 kts 85°
2026-05-08 02:10 45.70036 -121.68345 3456 ft 130 kts 84°
2026-05-08 02:10 45.70103 -121.67054 3455 ft 130 kts 84°
2026-05-08 02:10 45.70169 -121.65760 3453 ft 130 kts 84°
2026-05-08 02:10 45.70237 -121.64457 3451 ft 130 kts 84°
2026-05-08 02:11 45.70309 -121.63168 3449 ft 130 kts 84°
2026-05-08 02:11 45.70378 -121.61871 3447 ft 130 kts 84°
2026-05-08 02:11 45.70445 -121.60569 3448 ft 130 kts 84°
2026-05-08 02:11 45.70517 -121.59281 3449 ft 130 kts 83°
2026-05-08 02:12 45.70589 -121.57989 3452 ft 130 kts 84°
2026-05-08 02:12 45.70657 -121.56687 3450 ft 130 kts 84°
2026-05-08 02:12 45.70726 -121.55376 3443 ft 131 kts 84°
2026-05-08 02:12 45.70792 -121.54072 3439 ft 131 kts 84°
2026-05-08 02:13 45.70802 -121.52757 3439 ft 131 kts 91°
2026-05-08 02:13 45.70766 -121.51447 3438 ft 131 kts 92°
2026-05-08 02:13 45.70622 -121.50139 3440 ft 131 kts 100°
2026-05-08 02:13 45.70450 -121.48860 3440 ft 131 kts 100°
2026-05-08 02:14 45.70279 -121.47578 3440 ft 131 kts 100°
2026-05-08 02:14 45.70110 -121.46285 3435 ft 131 kts 100°
2026-05-08 02:14 45.69944 -121.45005 3434 ft 131 kts 100°
2026-05-08 02:14 45.69778 -121.43713 3436 ft 131 kts 100°
2026-05-08 02:15 45.69613 -121.42429 3436 ft 131 kts 100°
2026-05-08 02:15 45.69449 -121.41142 3436 ft 131 kts 100°
2026-05-08 02:15 45.69284 -121.39848 3401 ft 133 kts 100°
2026-05-08 02:15 45.69117 -121.38517 3275 ft 134 kts 100°
2026-05-08 02:16 45.68952 -121.37205 3151 ft 134 kts 100°
2026-05-08 02:16 45.68786 -121.35890 3032 ft 134 kts 99°
2026-05-08 02:16 45.68618 -121.34592 2910 ft 134 kts 101°
2026-05-08 02:16 45.68441 -121.33260 2785 ft 134 kts 101°
2026-05-08 02:17 45.68282 -121.32014 2668 ft 135 kts 101°
2026-05-08 02:17 45.68113 -121.30705 2544 ft 135 kts 101°
2026-05-08 02:17 45.67934 -121.29382 2406 ft 135 kts 100°
2026-05-08 02:17 45.67760 -121.28048 2280 ft 135 kts 101°
2026-05-08 02:18 45.67588 -121.26741 2155 ft 135 kts 100°
2026-05-08 02:18 45.67411 -121.25423 2032 ft 135 kts 101°
2026-05-08 02:18 45.67235 -121.24129 1995 ft 130 kts 101°
2026-05-08 02:18 45.67024 -121.22872 1870 ft 133 kts 115°
2026-05-08 02:19 45.66391 -121.21922 1742 ft 130 kts 150°
2026-05-08 02:19 45.65588 -121.21308 1552 ft 134 kts 156°
2026-05-08 02:19 45.64750 -121.20729 1437 ft 130 kts 163°
2026-05-08 02:19 45.63909 -121.20209 1285 ft 133 kts 163°
2026-05-08 02:20 45.63070 -121.19795 1282 ft 121 kts 169°
2026-05-08 02:20 45.62271 -121.19441 1252 ft 119 kts 164°
2026-05-08 02:20 45.61536 -121.19000 1263 ft 110 kts 159°
2026-05-08 02:20 45.60880 -121.18536 1229 ft 106 kts 156°
2026-05-08 02:21 45.60222 -121.18027 1160 ft 104 kts 157°
2026-05-08 02:21 45.59601 -121.17492 1080 ft 110 kts 133°
2026-05-08 02:21 45.59386 -121.16476 1005 ft 108 kts 78°
2026-05-08 02:21 45.59686 -121.15574 925 ft 96 kts 38°
2026-05-08 02:22 45.60190 -121.15190 782 ft 73 kts 339°
2026-05-08 02:22 45.60595 -121.15531 622 ft 64 kts 312°
2026-05-08 02:22 45.60914 -121.15881 462 ft 55 kts 319°
2026-05-08 02:22 45.61216 -121.16189 326 ft 50 kts 312°
2026-05-08 02:23 45.61504 -121.16484 267 ft 53 kts 319°
2026-05-08 02:23 45.61780 -121.16772 259 ft 43 kts 326°
2026-05-08 02:23 45.61979 -121.16971 252 ft 18 kts 315°
2026-05-08 02:23 45.62015 -121.17061 250 ft 6 kts 273°
2026-05-08 02:24 45.62014 -121.17120 249 ft 7 kts 262°
2026-05-08 02:24 45.61970 -121.17183 249 ft 10 kts 213°
2026-05-08 02:24 45.61937 -121.17268 248 ft 10 kts 266°
2026-05-08 02:24 45.61912 -121.17356 247 ft 8 kts 189°
2026-05-08 02:25 45.61901 -121.17344 247 ft 0 kts 111°